Location: Unspecified
(0.0000°N, 0.0000°E)
Time: 16:16:17
(UTC+00:00)

deb NNS O-10 - Visible Passes

Search period start: 15 May 2026 00:00
Search period end: 25 May 2026 00:00
Orbit: 898 x 1039 km, 89.1° (Epoch: 14 May)

Date Brightness Start Highest point End Pass type
(mag) Time Alt. Az. Time Alt. Az. Time Alt. Az.
15 May ? 02:58:38 26° ENE 02:58:38 26° ENE 03:02:51 10° NNE visible
15 May ? 04:43:11 21° WNW 04:43:11 21° WNW 04:46:35 10° NW visible
16 May ? 03:22:26 44° NE 03:22:26 44° NE 03:26:44 10° NNE visible
17 May ? 03:46:09 42° NNW 03:46:09 42° NNW 03:49:54 10° N visible
18 May ? 02:25:16 12° ENE 02:25:16 12° ENE 02:25:57 10° NE visible
18 May ? 04:09:49 25° NW 04:09:49 25° NW 04:12:25 10° NNW visible
19 May ? 02:48:53 19° NE 02:48:53 19° NE 02:50:54 10° NNE visible
19 May ? 04:33:26 12° NW 04:33:26 12° NW 04:34:02 10° NW visible
20 May ? 03:12:28 24° NNE 03:12:28 24° NNE 03:14:39 10° N visible
21 May ? 03:36:01 20° NNW 03:36:01 20° NNW 03:37:42 10° N visible
22 May ? 03:59:32 12° NNW 03:59:32 12° NNW 04:00:04 10° NNW visible
23 May ? 02:38:29 12° NNE 02:38:29 12° NNE 02:38:56 10° NNE visible
24 May ? 03:01:56 13° N 03:01:56 13° N 03:02:32 10° N visible
